www.pogodaiklimat.ru

Погода и климат >> Архив погоды >> Марокко >> Мекнес


ПОГОДА в Мекнесе

  • Прогноз погоды в Мекнесе
  • Монитор погоды в Мекнесе

АРХИВ ПОГОДЫ в Мекнесе

Время (UTC), дата Ветер
(напр.,м/с)
 
Видим.   Явления Облачность Т
(С)
Тd
(С)
f
(%)
Тe
(С)
Тes
(С)
Комфортность P
(гПа)
Po
(гПа)
Тmin
(С)
Tmax
(С)
R
(мм)
R24
(мм)
S
(см)
15 13.08 СЗ 6 10 км ясно +32.5 +9.4 24 +32 +37 жарко 1011.1 950.3
18 13.08 СЗ 6 10 км ясно +31.8 +8.8 24 +31 +31 жарко 1011.1 950.2 +33.5
21 13.08 З 3 10 км ясно +25.0 +13.6 49 +27 +27 жарко 1014.1 951.7
00 14.08 штиль 0 10 км ясно +21.1 +12.8 59 +23 +23 комфорт 1015.5 952.4
03 14.08 штиль 0 10 км ясно +19.4 +11.8 61 +20 +20 1015.0 951.4
06 14.08 ЮВ 5 10 км ясно +19.7 +12.0 61 +21 +21 комфорт 1015.2 951.6 +18.5
09 14.08 В 8 10 км ясно +28.9 +13.6 39 +31 +32 жарко 1013.2 951.7
12 14.08 С 6 10 км ясно +33.3 +13.9 31 +34 +42 очень
жарко
1012.4 951.8
15 14.08 СЗ 5 10 км ясно +37.0 +13.7 25 +37 +44 очень
жарко
1010.5 950.7
18 14.08 СЗ 8 10 км ясно +34.2 +14.2 30 +35 +36 очень
жарко
1011.0 950.6 +37.3
21 14.08 З 3 10 км ясно +26.8 +14.6 47 +29 +29 жарко 1014.7 952.7
00 15.08 штиль 0 10 км ясно +23.9 +13.4 52 +26 +26 жарко 1015.4 945.7
03 15.08 ЮВ 2 10 км ясно +21.7 +13.6 60 +24 +24 комфорт 1015.0 951.9
06 15.08 ЮВ 4 10 км ясно +22.2 +13.3 57 +25 +25 комфорт 1015.0 952.0 +21.1
09 15.08 С 3 10 км ясно +29.1 +16.0 45 +32 +40 душно 1013.8 952.3
12 15.08 СЗ 7 10 км ясно +33.0 +15.1 34 +35 +40 душно 1012.8 952.1
15 15.08 З 10 10 км ясно +37.2 +7.2 16 +35 +36 очень
жарко
1010.8 950.8
18 15.08 СЗ 9 10 км ясно +33.6 +16.9 37 +37 +37 очень
душно
1011.3 950.9 +37.6
00 16.08 штиль 0 10 км ясно +23.1 +14.5 58 +27 +27 душно 1015.4 952.6
03 16.08 ЮВ 4 10 км ясно +21.8 +16.1 70 +26 +26 душно 1014.7 951.7
06 16.08 штиль 0 10 км ясно +21.4 +16.4 73 +25 +25 комфорт 1015.1 952.0 +20.3
09 16.08 СВ 3 10 км ясно +29.3 +15.6 43 +32 +40 душно 1013.2 951.8
12 16.08 СЗ 4 10 км ясно +33.2 +15.2 34 +35 +48 душно 1012.1 951.6
15 16.08 СЗ 7 10 км 1/1 700 м
[Cu med, cong]
+36.8 +13.0 24 +37 +40 очень
жарко
1010.2 950.3
18 16.08 СЗ 9 10 км ясно +33.3 +17.1 38 +37 +37 очень
душно
1010.5 950.1 +37.3
21 16.08 штиль 0 10 км ясно +27.5 +16.2 50 +31 +31 душно 1013.6 951.8
00 17.08 штиль 0 10 км ясно +24.5 +15.7 58 +28 +28 душно 1014.0 951.6
03 17.08 штиль 0 10 км ясно +21.7 +14.1 62 +25 +25 комфорт 1013.5 950.5
06 17.08 штиль 0 10 км ясно +21.0 +14.6 67 +24 +24 комфорт 1013.4 950.3 +20.9
09 17.08 СВ 2 10 км 1/0
[Ac cast]
+30.2 +14.8 39 +32 +41 жарко 1011.8 950.6
12 17.08 СЗ 6 10 км ясно +34.2 +14.7 31 +36 +43 душно 1010.2 949.9
15 17.08 СЗ 8 10 км ясно +37.1 +15.0 27 +38 +41 душно 1008.4 948.7
18 17.08 СЗ 7 10 км 1/1 700 м
[Cu med, cong]
+35.0 +14.3 29 +36 +36 очень
жарко
1008.3 948.2 +37.7
21 17.08 З 6 10 км ясно +27.7 +17.6 54 +32 +32 очень
душно
1012.0 950.4
00 18.08 З 1 10 км ясно +22.6 +19.0 80 +28 +28 душно 1013.8 951.1
03 18.08 ЮЗ 3 10 км ясно +20.9 +18.8 88 +26 +26 душно 1013.6 950.5
06 18.08 штиль 0 10 км ясно +19.8 +17.6 87 +22 +22 комфорт 1013.8 950.5 +19.2
09 18.08 СВ 2 10 км ясно +26.3 +17.1 57 +30 +39 душно 1013.8 951.9
12 18.08 СЗ 5 10 км ясно +31.0 +16.6 42 +34 +44 душно 1013.0 951.9
15 18.08 С 9 10 км ясно +33.0 +14.1 32 +34 +36 очень
жарко
1011.7 950.9
18 18.08 СЗ 9 10 км ясно +30.5 +15.3 40 +33 +33 душно 1011.7 950.6 +34.2
21 18.08 СЗ 5 10 км ясно +23.4 +13.9 55 +27 +27 душно 1015.6 952.8
00 19.08 Ю 2 10 км ясно +20.4 +12.1 59 +23 +23 комфорт 1016.0 952.5
03 19.08 штиль 0 10 км ясно +18.1 +11.4 65 +18 +18 1015.4 951.4
09 19.08 С 1 10 км ясно +26.2 +15.3 51 +29 +39 жарко 1014.1 952.0
12 19.08 СЗ 5 10 км ясно +29.8 +12.7 35 +31 +41 жарко 1013.1 951.7
15 19.08 СЗ 7 10 км 1/1 700 м
[Cu med, cong]
+33.1 +8.6 22 +32 +35 жарко 1011.3 950.6
18 19.08 СЗ 10 10 км ясно +29.3 +13.5 38 +31 +31 жарко 1012.2 950.8 +34.2
21 19.08 З 5 10 км ясно +22.3 +16.8 71 +27 +27 душно 1016.0 953.0
00 20.08 З 2 10 км ясно +19.4 +18.1 92 +22 +22 комфорт 1017.1 953.5
03 20.08 Ю 2 10 км ясно +17.4 +16.1 92 +18 +18 1015.9 951.9
06 20.08 штиль 0 10 км 3/0
[Ci sp]
+15.3 +14.0 92 +15 +15 1016.2 951.7 +15.1
09 20.08 СЗ 3 10 км ясно +23.2 +17.9 72 +29 +36 душно 1015.2 952.5
12 20.08 С 4 10 км ясно +28.6 +12.1 36 +30 +42 жарко 1013.8 952.1

 

Местоположение метеостанции Мекнес (Марокко): широта 33.88 долгота -5.53 высота над уровнем моря 560 м.

В архиве по умолчанию представлена погода в Мекнесе за последнюю неделю. Архивные данные за месяц целиком и за предыдущие месяцы, начиная с января 2011 года, Вы можете получить, выбрав интересующий диапазон дат из раскрывающегося списка и нажав кнопку "Ввод!".


*Определитесь, кто Вы:
робот инопланетянин человек

Внимание! Время в таблицах - всемирное. Для получения местного времени необходимо прибавить поправку, которая равна 0 ч.

Смотрите также архив погоды в соседних городах и на ближайших метеорологических станциях:

Погода в Фесе (Марокко) (51 км)
Погода в Кенитре (Марокко) (109 км)
Погода в Рабате (Марокко) (116 км)
Погода в Шавене (Марокко) (134 км)
Погода в Тазе (Марокко) (146 км)
Погода в Мидельте (Марокко) (153 км)
Погода в Эль-Араише (Марокко) (155 км)
Погода в Касба-Тадле (Марокко) (166 км)
Погода в Мохаммедии (Марокко) (174 км)
Погода в Хурибге (Марокко) (175 км)

Пояснения к столбцам:

Ветер - указаны скорость ветра в м/с - средняя за 10 мин, порывы в срок и между сроками (в фигурных скобках) и направление, откуда дует ветер: С - северный, СВ - северо-восточный, В - восточный, ЮВ - юго-восточный, Ю - южный, ЮЗ - юго-западный, З - западный, СЗ - северо-западный.
Видимость - горизонтальная дальность видимости в метрах или километрах. При видимости от 1 до 10 км при отсутствии осадков обычно наблюдается дымка, при ухудшении видимости до 1 км и менее - туман. В сухую погоду видимость может ухудшаться дымом, пылью или мглою.
Явления - указаны атмосферные явления, наблюдавшиеся в срок или в последний час перед сроком; фигурными скобками обозначены явления, наблюдавшиеся между сроками (за 1-3 часа до срока); квадратными скобками обозначены град или гололедные отложения с указанием их диаметра в мм.
Облачность - указаны через наклонную черту общая и нижняя облачность в баллах и высота нижней границы облаков в метрах; квадратными скобками обозначены формы облаков: Ci - перистые, Cs - перисто-слоистые, Cc - перисто-кучевые, Ac - высококучевые, As - высокослоистые, Sc - слоисто-кучевые, Ns - слоисто-дождевые, Cu - кучевые, Cb - кучево-дождевые. Подробнее классификацию облаков см. в Атласе облаков (PDF).
T - Температура воздуха - температура, измеренная на высоте 2 м над землей.
Td - Температура точки росы - температура, при понижении до которой содержащийся в воздухе водяной пар достигнет насыщения.
f - Относительная влажность воздуха - влажноcть воздуха, измеренная на высоте 2 м над землей.
Te - Эффективная температура - температура, которую ощущает одетый по сезону человек в тени. Характеристика душности погоды. При расчете учитывается влияние влажности воздуха и скорости ветра на теплоощущения человека.
Tes - Эффективная температура на солнце - температура, которую ощущает человек, с поправкой на солнечный нагрев. Характеристика знойности погоды. Зависит от высоты солнца над горизонтом, облачности и скорости ветра. Ночью, в пасмурную погоду, а также при ветре 12 м/с и более поправка равна нулю.
P - Атмосферное давление - приведенное к уровню моря атмосферное давление.
Po - Атмосферное давление - измеренное на уровне метеостанции атмосферное давление.
Tmin - Минимальная температура - минимум температуры воздуха на высоте 2 м над землей.
Tmax - Максимальная температура - максимум температуры воздуха на высоте 2 м над землей.
R - Количество осадков - Количество выпавших осадков за период времени, мм. При наведении курсора мыши на число - период времени, за который выпало указанное количество осадков.
R24 - Количество осадков - Количество выпавших осадков за 24 часа, мм.
S - Снежный покров - Высота снежного покрова, см. При наведении курсора мыши на число - состояние снежного покрова и степень покрытия местности в баллах.